This is the latest recevied weather packets stored in our database for station/object N9EA. If no packets are shown the sender has not sent any weather packets the latest 10 day(s).
| Time | Temp. | Humidity | Pressure | Rain* | Wind** | Luminosity | Snow |
|---|---|---|---|---|---|---|---|
| 1777756137 | 14.44° C | 33% | 1016.9 hPa | 0 mm | - | 220 W/m² | - |
| 1777755834 | 14.44° C | 34% | 1017 hPa | 0 mm | - | 164 W/m² | - |
| 1777755532 | 15° C | 33% | 1017.3 hPa | 0 mm | - | 179 W/m² | - |
| 1777755227 | 15° C | 33% | 1017.1 hPa | 0 mm | - | 249 W/m² | - |
| 1777754925 | 15° C | 31% | 1017.2 hPa | 0 mm | - | 226 W/m² | - |
| 1777754622 | 15.56° C | 32% | 1017.3 hPa | 0 mm | - | 323 W/m² | - |
| 1777754319 | 15.56° C | 32% | 1017.3 hPa | 0 mm | - | 155 W/m² | - |
| 1777754017 | 16.11° C | 30% | 1017.4 hPa | 0 mm | - | 252 W/m² | - |
| 1777753713 | 16.67° C | 29% | 1017.5 hPa | 0 mm | - | 614 W/m² | - |
| 1777753410 | 15° C | 35% | 1017.4 hPa | 0 mm | - | 639 W/m² | - |
| 1777753108 | 15° C | 32% | 1017.6 hPa | 0 mm | - | 179 W/m² | - |
| 1777752804 | 15.56° C | 32% | 1017.7 hPa | 0 mm | - | 199 W/m² | - |
| 1777752500 | 16.11° C | 30% | 1017.7 hPa | 0 mm | - | 532 W/m² | - |
| 1777752196 | 15.56° C | 32% | 1017.7 hPa | 0 mm | - | 584 W/m² | - |
| 1777751895 | 15.56° C | 30% | 1017.8 hPa | 0 mm | - | 769 W/m² | - |
| 1777751591 | 15° C | 32% | 1017.9 hPa | 0 mm | - | 486 W/m² | - |
| 1777751288 | 14.44° C | 33% | 1017.9 hPa | 0 mm | - | 849 W/m² | - |
| 1777750984 | 14.44° C | 34% | 1017.8 hPa | 0 mm | - | 153 W/m² | - |
| 1777750680 | 15° C | 33% | 1018 hPa | 0 mm | - | 230 W/m² | - |
| 1777750377 | 15.56° C | 32% | 1018.2 hPa | 0 mm | - | 802 W/m² | - |
| 1777750072 | 17.22° C | 29% | 1018.1 hPa | 0 mm | - | 785 W/m² | - |
| 1777749770 | 16.11° C | 32% | 1018.2 hPa | 0 mm | - | 794 W/m² | - |
| 1777749466 | 16.67° C | 30% | 1018.2 hPa | 0 mm | - | 252 W/m² | - |
| 1777749165 | 16.11° C | 41% | 1018.5 hPa | 0 mm | - | 916 W/m² | - |
| 1777748861 | 15° C | 32% | 1018.4 hPa | 0 mm | - | 766 W/m² | - |
* Rain latest hour (hover to see other rain measurements)
** Current wind speed in m/s (hover to see current wind gust speed)